Location: Caltech
(34.1382°N, 118.1253°W)
Time: 18:47:13
(UTC-07:00)

Daily predictions for brighter satellites

Satellite Brightness Start Highest point End
(mag) Time Altitude Azimuth Time Altitude Azimuth Time Altitude Azimuth
Cosmos 1656 3.7 19:34:16 10° S 19:39:52 70° ESE 19:45:24 10° NNE
ALOS 3.3 19:37:40 10° SE 19:41:31 26° ENE 19:45:22 10° NNE
H-2A R/B 4.4 19:39:03 10° ESE 19:41:40 18° ENE 19:44:19 10° NNE
Cosmos 2369 4.5 19:37:21 10° SSW 19:42:55 59° WNW 19:48:34 10° NNE
Meteor 2-4 Rocket 4.3 19:37:38 10° NNW 19:43:30 70° W 19:49:23 10° S
Spot 2 Rocket 3.5 19:38:53 10° SSE 19:43:55 65° ENE 19:48:57 10° N
Meteor 1-28 Rocket 3.8 19:40:40 10° N 19:44:25 62° WNW 19:48:07 10° SSW
Resurs 1-3 3.9 19:40:32 10° SE 19:44:43 45° ENE 19:48:54 10° N
NOAA 12 4.2 19:41:19 10° SSE 19:46:32 84° WSW 19:51:48 10° NNW
Tiangong 1 2.7 19:47:23 10° NW 19:50:02 25° NNE 19:52:40 10° ENE
RESURS DK-1 3.9 19:47:15 10° N 19:50:23 20° ENE 19:53:30 10° ESE
OAO 2 Rocket 3.4 19:46:50 10° W 19:51:48 81° N 19:56:52 10° E
FREGAT/IRIS 3.7 19:52:47 10° S 19:55:50 51° W 19:58:54 10° NNW
Cosmos 1500 3.8 19:54:58 10° SSE 19:58:24 34° E 20:01:51 10° NNE
Helios 1A 3.0 19:54:41 10° SSE 19:58:51 90° ENE 20:03:05 10° NNW
Cosmos 2123 Rocket 4.0 19:55:04 10° N 20:01:16 83° E 20:07:28 10° S
Cosmos 1461 4.2 19:58:01 10° NW 20:01:43 37° WSW 20:05:19 10° S
Myojo/LAPS 3.9 20:02:45 10° WSW 20:05:06 26° S 20:06:32 15° SE
BREEZE-M DEB (TANK) 4.4 20:04:05 10° WSW 20:07:31 56° NNW 20:18:20 10° NE
CZ-2D R/B 3.7 20:05:54 10° SE 20:09:32 41° ENE 20:13:13 10° N
Cosmos 2322 Rocket 3.4 20:06:28 10° SE 20:10:08 18° E 20:13:48 10° ENE
Cosmos 2227 Rocket 2.8 20:04:46 10° NNW 20:10:20 60° WSW 20:15:52 10° S
Cosmos 2298 Rocket 4.1 20:05:44 10° N 20:10:59 57° ENE 20:16:12 10° SSE
ERS-1 Rocket 4.5 20:09:01 14° E 20:11:16 19° ENE 20:14:41 10° NNE
Cosmos 1975 3.0 20:11:05 10° S 20:15:10 78° W 20:19:17 10° N
Resurs 01 Rocket 2.4 20:12:10 10° S 20:16:30 54° W 20:20:52 10° NNW
Lacrosse 5 rocket 2.7 20:16:04 10° WNW 20:19:19 30° WSW 20:22:29 10° S
Cosmos 1763 Rocket 3.6 20:18:00 10° S 20:22:55 49° ESE 20:27:47 10° NNE
Cosmos 2297 Rocket 2.6 20:19:15 10° NNW 20:24:50 64° WSW 20:30:25 10° S
Cosmos 1515 3.6 20:23:27 10° N 20:27:18 76° E 20:31:02 10° S
EO 1 Delta rocket 4.3 20:23:26 10° N 20:28:27 84° W 20:34:37 10° SSW
Cosmos 2360 4.2 20:26:50 10° S 20:32:25 59° ESE 20:38:03 10° NNE
Cosmos 2084 3.9 20:30:41 10° NW 20:34:47 60° WSW 20:38:05 16° SSE
Cosmos 2150 Rocket 3.9 20:30:18 10° NNW 20:35:29 86° ENE 20:39:58 14° SSE
Cosmos 1825 Rocket 4.1 20:33:25 10° N 20:37:32 38° E 20:38:42 32° ESE
Cosmos 1898 Rocket 3.6 20:37:13 10° NNW 20:42:30 77° WSW 20:47:08 13° S
Cosmos 1743 2.6 20:41:29 10° S 20:45:23 80° E 20:49:18 10° N
H-2A R/B 3.8 20:49:18 17° NE 20:49:18 17° NE 20:51:13 10° NNE
Cosmos 841 Rocket 3.4 20:43:54 10° SSW 20:49:08 80° ESE 20:54:22 10° NNE
Cosmos 1802 Rocket 4.0 20:43:27 10° S 20:49:47 70° E 20:56:11 10° NNE
Cosmos 1953 Rocket 4.0 20:46:23 10° N 20:50:35 39° E 20:50:51 39° E
Cosmos 2016 Rocket 4.0 20:45:38 10° S 20:51:37 59° E 20:57:41 10° NNE
Cosmos 1697 Rocket 4.3 20:48:05 10° SW 20:53:15 36° WNW 20:58:25 10° N
CZ-3C R/B 3.8 20:05:15 10° W 20:57:01 43° SSW 21:02:33 23° SSE
USA 186 2.7 20:56:23 30° SW 20:57:20 40° W 21:00:01 10° NNW
Cosmos 1939 Rocket 3.4 20:58:21 41° ENE 20:58:21 41° ENE 21:02:02 10° N
Cosmos 2098 Rocket 4.1 20:54:30 18° SSE 20:59:30 51° E 21:04:59 10° NNE
Cosmos 2173 Rocket 4.1 20:56:48 10° S 21:03:10 79° W 21:09:30 10° N
SJ-11-01 4.2 21:03:11 50° SE 21:04:18 71° ENE 21:08:58 10° N
DELTA 2 R/B (1) 4.2 20:59:57 10° WNW 21:05:14 45° SSW 21:06:57 34° SSE
Lacrosse 5 2.3 21:02:47 10° NW 21:07:44 56° SW 21:09:26 37° S
Cosmos 1758 Rocket 3.8 21:04:26 10° N 21:08:07 49° NE 21:08:07 49° NE
SL-16 R/B 2.1 21:03:36 10° S 21:09:10 61° ESE 21:14:45 10° NNE
Cosmos 1375 Rocket 4.4 21:04:31 10° SSW 21:11:04 80° ESE 21:17:41 10° NNE
YAOGAN 11 4.0 21:13:22 64° S 21:14:03 88° WSW 21:18:31 10° NNW
Cosmos 967 Rocket 4.3 21:08:05 10° NNW 21:14:26 84° ENE 21:16:23 47° SSE
SPOT 5 3.8 21:15:52 32° NE 21:15:52 32° NE 21:19:15 10° N
Cosmos 1980 Rocket 3.7 21:13:01 10° SW 21:18:13 37° WNW 21:23:29 10° N
ALOS 4.3 21:15:00 10° SSW 21:18:50 25° W 21:22:42 10° NW
CZ-4 DEB 4.4 21:20:23 31° NNW 21:20:23 31° NNW 21:22:14 10° NNW
Cosmos 1864 Rocket 4.3 21:19:09 49° SSE 21:20:39 66° E 21:26:43 10° NNE
Cosmos 1666 3.8 21:23:52 37° N 21:23:52 37° N 21:26:16 10° N
Tiangong 1 3.4 21:23:37 10° WNW 21:25:01 23° WNW 21:25:01 23° WNW
deb Chang Zheng 4 4.5 21:22:30 10° NNE 21:25:22 39° NNE 21:25:22 39° NNE
RESURS DK-1 4.2 21:24:55 10° NW 21:28:23 26° WSW 21:29:31 23° SW
Centaur AC-125 4.1 21:13:14 10° W 21:30:10 45° SSW 21:31:02 42° S
Envisat 2.9 21:33:04 83° SW 21:33:13 84° WSW 21:38:20 10° NNW
OAO 2 Rocket 3.7 21:31:38 10° W 21:35:52 53° SW 21:35:52 53° SW
Cosmos 2058 Rocket 3.5 21:36:37 60° W 21:36:37 60° W 21:41:04 10° N
Cosmos 1340 4.4 21:38:00 10° NNW 21:41:02 31° W 21:41:02 31° W
Tsikada Rocket 3.9 21:36:37 10° N 21:43:03 79° E 21:43:16 78° ESE
Cosmos 2263 Rocket 3.3 21:40:06 10° N 21:43:45 31° NNE 21:43:45 31° NNE
ERS-1 Rocket 3.9 21:49:01 40° WSW 21:49:40 43° W 21:54:27 10° NNW
Cosmos 2322 Rocket 3.0 21:48:16 10° SW 21:53:40 49° WNW 21:59:08 10° N
Cosmos 1725 Rocket 4.3 21:52:15 41° SW 21:54:20 63° W 22:00:32 10° N
H-2A R/B 4.2 22:15:47 16° NNE 22:15:47 16° NNE 22:16:49 10° N
Cosmos 2233 Rocket 4.4 22:15:11 59° NNW 22:15:11 59° NNW 22:20:21 10° N
BREEZE-M DEB (TANK) 4.4 22:32:35 10° NW 22:43:51 50° NNW 22:43:51 50° NNW
Cosmos 2360 Rocket 4.5 23:05:59 19° N 23:05:59 19° N 23:07:45 10° N
